STARLINK-11260 [DTC]

Last updated on Sun Oct 06 2024 00:02:04 GMT+0000 (Coordinated Universal Time)

1 60997U 24158H 24279.41311049 -.00007109 11167-4 -88303-5 0 9994 2 60997 53.1474 323.4625 0001094 14.8696 345.2365 15.95300398 5972

Satellite not in orbit

STARLINK-11260 [DTC]